mailman.amsat.org
Sign In
Sign Up
Sign In
Sign Up
Manage this list
×
Keyboard Shortcuts
Thread View
j
: Next unread message
k
: Previous unread message
j a
: Jump to all threads
j l
: Jump to MailingList overview
2023
September
August
July
June
May
April
March
February
January
2022
December
November
October
September
August
July
June
May
April
March
February
January
2021
December
November
October
September
August
July
June
May
April
March
February
January
2020
December
November
October
September
August
July
June
May
April
March
February
January
2019
December
November
October
September
August
July
June
May
April
March
February
January
2018
December
November
October
September
August
July
June
May
April
March
February
January
2017
December
November
October
September
August
July
June
May
April
March
February
January
2016
December
November
October
September
August
July
June
May
April
March
February
January
2015
December
November
October
September
August
July
June
May
April
March
February
January
2014
December
November
October
September
August
July
June
May
April
March
February
January
2013
December
November
October
September
August
July
June
May
April
March
February
January
2012
December
November
October
September
August
July
June
May
April
March
February
January
2011
December
November
October
September
August
July
June
May
April
March
February
January
2010
December
November
October
September
August
July
June
May
April
March
February
January
2009
December
November
October
September
August
July
June
May
April
March
February
January
2008
December
November
October
September
August
July
June
May
April
March
February
January
2007
December
November
October
September
August
July
June
May
April
March
February
January
2006
December
November
October
September
List overview
Download
Keps
November 2009
----- 2023 -----
September 2023
August 2023
July 2023
June 2023
May 2023
April 2023
March 2023
February 2023
January 2023
----- 2022 -----
December 2022
November 2022
October 2022
September 2022
August 2022
July 2022
June 2022
May 2022
April 2022
March 2022
February 2022
January 2022
----- 2021 -----
December 2021
November 2021
October 2021
September 2021
August 2021
July 2021
June 2021
May 2021
April 2021
March 2021
February 2021
January 2021
----- 2020 -----
December 2020
November 2020
October 2020
September 2020
August 2020
July 2020
June 2020
May 2020
April 2020
March 2020
February 2020
January 2020
----- 2019 -----
December 2019
November 2019
October 2019
September 2019
August 2019
July 2019
June 2019
May 2019
April 2019
March 2019
February 2019
January 2019
----- 2018 -----
December 2018
November 2018
October 2018
September 2018
August 2018
July 2018
June 2018
May 2018
April 2018
March 2018
February 2018
January 2018
----- 2017 -----
December 2017
November 2017
October 2017
September 2017
August 2017
July 2017
June 2017
May 2017
April 2017
March 2017
February 2017
January 2017
----- 2016 -----
December 2016
November 2016
October 2016
September 2016
August 2016
July 2016
June 2016
May 2016
April 2016
March 2016
February 2016
January 2016
----- 2015 -----
December 2015
November 2015
October 2015
September 2015
August 2015
July 2015
June 2015
May 2015
April 2015
March 2015
February 2015
January 2015
----- 2014 -----
December 2014
November 2014
October 2014
September 2014
August 2014
July 2014
June 2014
May 2014
April 2014
March 2014
February 2014
January 2014
----- 2013 -----
December 2013
November 2013
October 2013
September 2013
August 2013
July 2013
June 2013
May 2013
April 2013
March 2013
February 2013
January 2013
----- 2012 -----
December 2012
November 2012
October 2012
September 2012
August 2012
July 2012
June 2012
May 2012
April 2012
March 2012
February 2012
January 2012
----- 2011 -----
December 2011
November 2011
October 2011
September 2011
August 2011
July 2011
June 2011
May 2011
April 2011
March 2011
February 2011
January 2011
----- 2010 -----
December 2010
November 2010
October 2010
September 2010
August 2010
July 2010
June 2010
May 2010
April 2010
March 2010
February 2010
January 2010
----- 2009 -----
December 2009
November 2009
October 2009
September 2009
August 2009
July 2009
June 2009
May 2009
April 2009
March 2009
February 2009
January 2009
----- 2008 -----
December 2008
November 2008
October 2008
September 2008
August 2008
July 2008
June 2008
May 2008
April 2008
March 2008
February 2008
January 2008
----- 2007 -----
December 2007
November 2007
October 2007
September 2007
August 2007
July 2007
June 2007
May 2007
April 2007
March 2007
February 2007
January 2007
----- 2006 -----
December 2006
November 2006
October 2006
September 2006
[email protected]
2 participants
11 discussions
Start a n
N
ew thread
orb09309.amsat
by Ray Hoad
05 Nov '09
05 Nov '09
SB KEPS @ AMSAT $ORB09309.O Orbital Elements 09309.OSCAR HR AMSAT ORBITAL ELEMENTS FOR OSCAR SATELLITES FROM WA5QGD FORT WORTH,TX November 5, 2009 Send Subscribe/unsubscribe to KEPS at
http://www.amsat.org/mailman/listinfo/keps
BID: ORB09309.O TO ALL RADIO AMATEURS BT Satellite: AO-07 Catalog number: 07530 Epoch time: 09308.94699184 Element set: 0622 Inclination: 101.4185 deg RA of node: 328.4117 deg Eccentricity: 0.0011920 Arg of perigee: 354.0278 deg Mean anomaly: 006.0653 deg Mean motion: 12.53576873 rev/day Decay rate: -2.7e-07 rev/day^2 Epoch rev: 60035 Checksum: 292 Satellite: FO-29 Catalog number: 24278 Epoch time: 09308.65977209 Element set: 0185 Inclination: 098.5294 deg RA of node: 163.6609 deg Eccentricity: 0.0350900 Arg of perigee: 346.3963 deg Mean anomaly: 012.7902 deg Mean motion: 13.52946294 rev/day Decay rate: 2.0e-08 rev/day^2 Epoch rev: 65274 Checksum: 336 Satellite: SO-33 Catalog number: 25509 Epoch time: 09307.49941818 Element set: 0579 Inclination: 031.4311 deg RA of node: 344.7343 deg Eccentricity: 0.0354167 Arg of perigee: 116.5707 deg Mean anomaly: 247.1614 deg Mean motion: 14.28269080 rev/day Decay rate: 1.8e-07 rev/day^2 Epoch rev: 57576 Checksum: 320 Satellite: RS-22 Catalog number: 27939 Epoch time: 09308.64684822 Element set: 0931 Inclination: 097.9197 deg RA of node: 178.2283 deg Eccentricity: 0.0014582 Arg of perigee: 051.2275 deg Mean anomaly: 309.0230 deg Mean motion: 14.63353659 rev/day Decay rate: 1.49e-06 rev/day^2 Epoch rev: 32611 Checksum: 321 Satellite: VO-52 Catalog number: 28650 Epoch time: 09308.59039410 Element set: 0357 Inclination: 097.7268 deg RA of node: 005.4004 deg Eccentricity: 0.0025867 Arg of perigee: 291.5318 deg Mean anomaly: 068.3253 deg Mean motion: 14.81637878 rev/day Decay rate: 2.83e-06 rev/day^2 Epoch rev: 24343 Checksum: 322 Satellite: SO-67 Catalog number: 35870 Epoch time: 09309.76818853 Element set: 146 Inclination: 097.3658 deg RA of node: 358.9063 deg Eccentricity: 0.0013041 Arg of perigee: 118.2637 deg Mean anomaly: 352.2684 deg Mean motion: 15.22839919 rev/day Decay rate: 5.22e-06 rev/day^2 Epoch rev: 746 Checksum: 338 /EX SB KEPS @ AMSAT $ORB09309.D Orbital Elements 09309.MICROS HR AMSAT ORBITAL ELEMENTS FOR THE MICROSATS FROM WA5QGD FORT WORTH,TX November 5, 2009 Send Subscribe/unsubscribe to KEPS at
http://www.amsat.org/mailman/listinfo/keps
